When you browse on this site, cookies collect data to enhance your experience and personalize the content and advertising you see.
Visit our Privacy Policy to learn more. By continuing to use the site, you agree to this use of cookies and data.
  • In United Kingdom
  • List of Countries
  • For 7 days
  • Water Temperature
  • Satellite Maps
  • Weather Map
  • Weather Widgets
  • user-avatar
    Login

    Hourly Weather Yangishahar

    Today, 23 April, Tuesday

    Time Temperature Precipitation Wind Pressure Humidity
    00:00 +16°C° 0.2 mm 3 mps 699 mmHg 69%
    01:00 +16°C° 0.2 mm 3 mps 699 mmHg 68%
    02:00 +16°C° 0.2 mm 2 mps 699 mmHg 67%
    03:00 +15°C° 0 mm 2 mps 699 mmHg 65%
    04:00 +14°C° 0 mm 3 mps 698 mmHg 63%
    05:00 +14°C° 0 mm 4 mps 698 mmHg 60%
    06:00 +15°C° 0 mm 4 mps 698 mmHg 56%
    07:00 +17°C° 0 mm 4 mps 698 mmHg 51%
    08:00 +18°C° 0 mm 4 mps 698 mmHg 46%
    09:00 +20°C° 0 mm 3 mps 698 mmHg 42%
    10:00 +23°C° 0 mm 2 mps 698 mmHg 37%
    11:00 +24°C° 0 mm 1 mps 698 mmHg 34%
    12:00 +25°C° 0 mm 2 mps 698 mmHg 32%
    13:00 +26°C° 0 mm 2 mps 698 mmHg 31%
    14:00 +26°C° 0 mm 2 mps 698 mmHg 30%
    15:00 +26°C° 0 mm 2 mps 698 mmHg 29%
    16:00 +26°C° 0 mm 1 mps 698 mmHg 29%
    17:00 +26°C° 0 mm 1 mps 698 mmHg 28%
    18:00 +25°C° 0 mm 1 mps 698 mmHg 32%
    19:00 +24°C° 0 mm 1 mps 698 mmHg 35%
    20:00 +23°C° 0 mm 1 mps 698 mmHg 38%
    21:00 +23°C° 0 mm 2 mps 698 mmHg 41%
    22:00 +21°C° 0 mm 2 mps 697 mmHg 43%
    23:00 +20°C° 0 mm 3 mps 697 mmHg 46%

    Tomorrow, 24 April, Wednesday

    Time Temperature Precipitation Wind Pressure Humidity
    00:00 +19°C° 0 mm 3 mps 696 mmHg 46%
    01:00 +19°C° 0 mm 4 mps 696 mmHg 46%
    02:00 +19°C° 0 mm 4 mps 695 mmHg 45%
    03:00 +19°C° 0 mm 4 mps 695 mmHg 45%
    04:00 +19°C° 0 mm 3 mps 694 mmHg 44%
    05:00 +19°C° 0 mm 3 mps 694 mmHg 43%
    06:00 +19°C° 0.2 mm 3 mps 694 mmHg 47%
    07:00 +19°C° 0.2 mm 3 mps 694 mmHg 51%
    08:00 +19°C° 0.2 mm 3 mps 695 mmHg 54%
    09:00 +19°C° 0.1 mm 3 mps 695 mmHg 50%
    10:00 +20°C° 0.1 mm 2 mps 696 mmHg 46%
    11:00 +21°C° 0.1 mm 2 mps 696 mmHg 42%
    12:00 +21°C° 0.4 mm 2 mps 696 mmHg 44%
    13:00 +21°C° 0.4 mm 3 mps 697 mmHg 46%
    14:00 +21°C° 0.4 mm 3 mps 697 mmHg 47%
    15:00 +19°C° 0.8 mm 4 mps 698 mmHg 55%
    16:00 +16°C° 0.8 mm 5 mps 698 mmHg 63%
    17:00 +14°C° 0.8 mm 6 mps 698 mmHg 71%
    18:00 +14°C° 1.6 mm 6 mps 699 mmHg 70%
    19:00 +13°C° 1.6 mm 5 mps 699 mmHg 68%
    20:00 +13°C° 1.6 mm 5 mps 700 mmHg 67%
    21:00 +12°C° 1.2 mm 5 mps 701 mmHg 68%
    22:00 +12°C° 1.2 mm 5 mps 702 mmHg 70%
    23:00 +11°C° 1.2 mm 4 mps 702 mmHg 72%

    Day after tomorrow, 25 April, Thursday

    Time Temperature Precipitation Wind Pressure Humidity
    00:00 +11°C° 0.5 mm 4 mps 703 mmHg 73%
    01:00 +10°C° 0.5 mm 3 mps 703 mmHg 74%
    02:00 +10°C° 0.5 mm 3 mps 703 mmHg 76%
    03:00 +10°C° 0.4 mm 3 mps 703 mmHg 77%
    04:00 +10°C° 0.4 mm 3 mps 703 mmHg 77%
    05:00 +9°C° 0.4 mm 2 mps 704 mmHg 78%
    06:00 +9°C° 0.5 mm 2 mps 704 mmHg 78%
    07:00 +9°C° 0.5 mm 2 mps 704 mmHg 79%
    08:00 +9°C° 0.5 mm 2 mps 704 mmHg 79%
    09:00 +10°C° 0.4 mm 2 mps 704 mmHg 76%
    10:00 +10°C° 0.4 mm 2 mps 704 mmHg 74%
    11:00 +10°C° 0.4 mm 2 mps 704 mmHg 71%
    12:00 +12°C° 0.2 mm 2 mps 704 mmHg 66%
    13:00 +13°C° 0.2 mm 2 mps 704 mmHg 61%
    14:00 +14°C° 0.2 mm 2 mps 704 mmHg 56%
    15:00 +14°C° 0.1 mm 2 mps 704 mmHg 54%
    16:00 +14°C° 0.1 mm 2 mps 705 mmHg 52%
    17:00 +14°C° 0.1 mm 2 mps 705 mmHg 51%
    18:00 +14°C° 0 mm 2 mps 705 mmHg 53%
    19:00 +12°C° 0 mm 3 mps 706 mmHg 56%
    20:00 +11°C° 0 mm 3 mps 706 mmHg 58%
    21:00 +11°C° 0 mm 3 mps 706 mmHg 60%
    22:00 +10°C° 0 mm 2 mps 706 mmHg 62%
    23:00 +11°C° 0 mm 1 mps 706 mmHg 63%

    26 April, Friday

    Time Temperature Precipitation Wind Pressure Humidity
    00:00 +11°C° 0 mm 1 mps 706 mmHg 65%
    01:00 +10°C° 0 mm 1 mps 706 mmHg 67%
    02:00 +10°C° 0 mm 1 mps 706 mmHg 69%
    03:00 +9°C° 0 mm 0 mps 706 mmHg 71%
    04:00 +8°C° 0 mm 0 mps 706 mmHg 73%
    05:00 +8°C° 0 mm 0 mps 706 mmHg 75%
    06:00 +9°C° 0 mm 0 mps 706 mmHg 71%
    07:00 +11°C° 0 mm 1 mps 706 mmHg 67%
    08:00 +11°C° 0 mm 1 mps 706 mmHg 63%
    09:00 +12°C° 0 mm 1 mps 706 mmHg 59%
    10:00 +13°C° 0 mm 2 mps 706 mmHg 55%
    11:00 +14°C° 0 mm 2 mps 706 mmHg 51%
    12:00 +14°C° 0 mm 3 mps 706 mmHg 47%
    13:00 +16°C° 0 mm 3 mps 705 mmHg 44%
    14:00 +17°C° 0 mm 3 mps 705 mmHg 40%
    15:00 +17°C° 0 mm 2 mps 705 mmHg 39%
    16:00 +17°C° 0 mm 2 mps 705 mmHg 38%
    17:00 +18°C° 0 mm 2 mps 705 mmHg 36%
    18:00 +17°C° 0 mm 2 mps 705 mmHg 40%
    19:00 +16°C° 0 mm 2 mps 706 mmHg 43%
    20:00 +16°C° 0 mm 1 mps 706 mmHg 46%
    21:00 +15°C° 0 mm 1 mps 706 mmHg 49%
    22:00 +14°C° 0 mm 1 mps 706 mmHg 51%
    23:00 +14°C° 0 mm 1 mps 706 mmHg 54%

    27 April, Saturday

    Time Temperature Precipitation Wind Pressure Humidity
    00:00 +13°C° 0 mm 1 mps 705 mmHg 54%
    01:00 +13°C° 0 mm 1 mps 705 mmHg 54%
    02:00 +12°C° 0 mm 1 mps 705 mmHg 54%
    03:00 +12°C° 0 mm 1 mps 704 mmHg 55%
    04:00 +12°C° 0 mm 1 mps 704 mmHg 55%
    05:00 +11°C° 0 mm 1 mps 704 mmHg 55%
    06:00 +12°C° 0 mm 1 mps 705 mmHg 53%
    07:00 +13°C° 0 mm 1 mps 705 mmHg 51%
    08:00 +14°C° 0 mm 1 mps 705 mmHg 49%
    09:00 +15°C° 0 mm 1 mps 705 mmHg 48%
    10:00 +16°C° 0 mm 2 mps 705 mmHg 46%
    11:00 +17°C° 0 mm 3 mps 705 mmHg 45%
    12:00 +17°C° 0.1 mm 3 mps 705 mmHg 45%
    13:00 +17°C° 0.1 mm 3 mps 705 mmHg 45%
    14:00 +18°C° 0.1 mm 4 mps 705 mmHg 45%
    15:00 +17°C° 0.4 mm 4 mps 705 mmHg 46%
    16:00 +17°C° 0.4 mm 3 mps 705 mmHg 47%
    17:00 +17°C° 0.4 mm 3 mps 706 mmHg 48%
    18:00 +17°C° 0.3 mm 3 mps 706 mmHg 51%
    19:00 +16°C° 0.3 mm 2 mps 706 mmHg 54%
    20:00 +15°C° 0.3 mm 1 mps 707 mmHg 57%
    21:00 +15°C° 0.1 mm 2 mps 707 mmHg 60%
    22:00 +15°C° 0.1 mm 2 mps 707 mmHg 63%
    23:00 +14°C° 0.1 mm 2 mps 706 mmHg 66%

    28 April, Sunday

    Time Temperature Precipitation Wind Pressure Humidity
    00:00 +14°C° 0 mm 2 mps 706 mmHg 67%
    01:00 +13°C° 0 mm 2 mps 705 mmHg 68%
    02:00 +13°C° 0 mm 2 mps 705 mmHg 70%
    03:00 +13°C° 0 mm 2 mps 704 mmHg 68%
    04:00 +12°C° 0 mm 2 mps 704 mmHg 66%
    05:00 +12°C° 0 mm 2 mps 704 mmHg 64%
    06:00 +13°C° 0 mm 1 mps 704 mmHg 59%
    07:00 +14°C° 0 mm 1 mps 704 mmHg 53%
    08:00 +15°C° 0 mm 1 mps 704 mmHg 48%
    09:00 +16°C° 0 mm 1 mps 704 mmHg 44%
    10:00 +19°C° 0 mm 1 mps 704 mmHg 40%
    11:00 +20°C° 0 mm 1 mps 704 mmHg 35%
    12:00 +20°C° 0 mm 1 mps 704 mmHg 34%
    13:00 +21°C° 0 mm 1 mps 703 mmHg 33%
    14:00 +21°C° 0 mm 2 mps 703 mmHg 32%
    15:00 +21°C° 0 mm 2 mps 703 mmHg 32%
    16:00 +21°C° 0 mm 2 mps 703 mmHg 33%
    17:00 +21°C° 0 mm 2 mps 703 mmHg 33%
    18:00 +21°C° 0 mm 1 mps 703 mmHg 37%
    19:00 +20°C° 0 mm 1 mps 703 mmHg 41%
    20:00 +19°C° 0 mm 1 mps 704 mmHg 45%
    21:00 +18°C° 0 mm 1 mps 703 mmHg 46%
    22:00 +18°C° 0 mm 1 mps 703 mmHg 48%
    23:00 +16°C° 0 mm 2 mps 703 mmHg 49%
    Show more